Wind_Speed
11 10 9 9 8 8 7 7 7 7 7 7 7 8 8 8 9 9 10 11 11 12 12 13 13 14 14 14 14 15 16 17 17 18 18 19 19 20 20 20 21 22 22
11 10 9 9 8 8 7 7 7 7 7 7 7 8 8 8 9 9 10 11 12 12 13 14 14 14 15 15 16 16 17 17 18 18 19 19 20 20 21 22 22 23 23
10 9 8 8 7 7 6 6 6 6 6 6 7 7 7 8 9 10 11 12 12 13 14 14 15 15 16 17 18 18 18 18 19 19 20 21 21 22 23 23 24 24 25
9 9 8 7 7 6 6 6 6 6 6 7 7 7 8 9 10 11 12 13 14 14 15 16 16 16 17 18 19 19 20 20 20 21 22 22 23 23 24 24 25 25 26
9 8 8 7 7 6 6 6 6 7 7 7 8 8 9 10 11 13 14 14 15 15 16 16 17 18 18 19 20 20 21 22 22 23 23 24 24 24 25 26 26 27 27
9 8 8 8 7 7 7 7 7 7 8 8 9 10 11 12 13 14 15 16 16 16 17 17 18 19 20 20 21 22 22 23 24 24 25 26 26 27 27 28 28 29 29
9 9 8 8 7 7 7 8 8 8 8 9 10 11 12 13 14 15 16 16 17 18 18 19 20 20 21 22 23 23 24 25 25 26 27 27 28 28 29 29 30 30 31
9 9 8 8 8 8 8 8 9 9 10 10 11 12 13 14 15 15 16 17 18 19 20 21 21 22 23 23 24 25 26 26 27 27 28 28 29 30 30 31 31 31 32
9 8 8 8 9 9 9 9 10 10 11 12 13 14 14 15 16 16 17 18 19 20 21 22 23 24 24 25 26 27 27 28 28 29 29 30 30 31 31 32 32 32 33
9 9 9 9 9 9 10 10 11 11 12 13 14 15 16 16 17 18 19 20 21 22 23 24 25 25 26 27 28 28 29 29 30 30 31 31 32 32 33 33 33 34 34
10 10 10 10 10 10 11 11 12 13 14 15 15 16 17 18 19 20 20 21 22 23 24 25 26 27 27 28 28 29 30 30 31 31 32 33 33 33 33 34 35 35 35
12 12 12 12 12 12 12 13 14 15 15 16 16 17 18 19 20 21 22 23 24 25 26 27 27 28 28 29 30 30 31 32 32 33 33 34 34 34 34 35 35 36 36
13 13 13 13 13 13 14 15 15 16 17 17 18 19 20 22 23 23 24 25 26 27 28 29 29 29 30 31 31 32 32 33 33 34 34 35 35 35 36 36 36 36 36
15 14 14 14 15 15 16 16 17 18 18 19 20 21 22 23 24 25 26 27 28 29 29 30 31 31 32 32 33 33 33 34 35 35 35 36 36 36 36 37 37 37 37
16 16 16 16 17 17 17 18 19 19 20 21 22 23 24 25 26 27 28 29 29 30 31 31 32 32 33 33 34 34 35 35 36 36 36 36 37 37 37 37 37 38 38
18 17 18 18 18 19 19 20 21 21 22 23 24 25 26 27 28 28 29 30 30 31 32 32 33 33 34 34 35 35 36 36 36 36 36 37 37 37 38 38 38 38 38
19 19 19 20 20 21 22 22 23 23 24 25 26 27 28 29 30 30 30 31 31 32 33 33 34 34 35 35 35 36 36 37 37 37 37 37 38 38 38 38 38 38 38
22 22 22 22 22 23 24 24 25 25 26 27 28 29 29 30 31 31 32 32 32 33 33 34 34 34 35 35 35 36 37 37 37 37 38 38 38 38 38 38 38 38 38
24 24 24 24 25 26 26 26 26 27 28 29 30 30 30 31 31 32 32 32 33 34 34 34 35 35 36 36 36 36 37 37 37 38 38 38 38 38 38 38 38 37 37
27 27 27 27 27 28 27 27 28 28 29 30 31 31 31 31 32 32 33 33 34 34 34 35 35 36 36 36 36 36 37 37 37 38 38 37 37 37 38 38 37 37 37
29 29 29 29 29 29 29 29 29 30 31 31 32 32 32 32 33 33 34 34 34 34 35 36 36 36 36 36 36 36 37 37 38 38 37 37 37 37 38 38 37 38 38
31 30 30 30 30 30 30 31 31 31 31 31 32 32 33 33 33 34 34 34 34 34 35 36 36 36 36 36 36 36 37 37 37 37 37 38 38 38 38 38 38 39 39
32 32 31 31 32 32 32 33 32 32 32 32 32 33 34 34 34 34 35 35 35 35 35 35 35 36 36 36 36 37 37 37 37 37 38 38 39 39 39 39 40 40 40
34 34 33 33 33 33 33 33 33 33 32 33 34 34 35 35 35 35 35 35 35 35 35 35 36 36 36 36 37 37 38 38 37 37 38 38 39 39 40 40 41 41 41
36 35 34 34 34 34 34 34 34 33 34 35 35 35 35 35 35 36 36 35 35 35 35 35 36 36 36 37 38 38 39 39 38 38 38 39 40 40 41 42 42 42 42
36 36 35 35 34 34 34 34 34 34 34 35 35 35 35 35 36 36 36 36 35 35 36 36 36 37 37 38 38 39 39 39 39 39 39 40 40 41 42 43 43 44 44
Wind_Direction
229 231 234 238 242 245 250 258 262 267 273 278 284 290 294 296 298 299 300 301 302 304 305 306 306 305 304 302 301 300 300 299 297 296 295 295 294 293 292 290 289 287 286
227 230 233 237 241 246 253 261 266 271 278 283 287 292 296 300 301 302 302 303 304 304 305 305 305 304 302 301 300 300 300 299 298 297 296 296 295 293 292 290 289 288 287
224 226 228 233 237 243 251 260 268 276 282 288 292 295 299 301 303 305 306 306 306 306 306 304 303 302 302 301 301 300 300 299 298 297 296 295 294 293 291 290 289 287 286
221 222 224 227 232 241 251 261 270 278 285 293 296 298 300 301 303 304 305 306 306 305 305 304 303 302 302 301 301 300 300 298 296 295 295 294 293 292 291 289 288 287 286
219 221 224 227 232 241 252 262 272 279 285 290 294 296 298 300 302 303 304 304 304 304 304 303 302 302 301 300 300 299 299 297 296 295 295 294 293 292 291 290 289 287 286
225 225 227 231 236 243 254 265 273 279 283 287 292 296 299 300 300 301 302 302 302 302 302 301 300 300 300 299 299 299 298 297 296 295 294 293 292 291 290 289 288 287 286
226 229 232 235 239 247 259 270 276 280 284 289 294 298 300 301 301 300 300 300 300 300 300 300 299 299 299 298 298 298 297 297 296 295 294 293 292 291 290 289 288 287 286
224 228 234 239 245 253 263 270 276 281 285 290 294 297 299 301 302 302 301 301 300 300 299 299 298 298 298 297 297 297 296 296 296 295 294 293 292 291 290 289 289 287 286
225 231 238 245 251 258 267 272 276 281 286 290 292 295 297 299 300 301 301 301 301 300 299 298 298 297 297 297 297 296 296 295 295 294 294 294 293 292 291 290 289 288 287
229 236 246 252 256 263 270 275 279 282 286 290 292 294 297 298 299 300 300 300 300 299 299 299 298 298 297 297 297 296 296 295 295 295 294 294 293 292 292 291 290 289 288
237 245 252 255 259 265 270 276 280 284 287 290 293 295 296 298 299 299 299 299 299 299 299 299 299 299 298 298 297 296 296 296 295 295 295 295 294 293 292 292 291 290 289
244 249 254 259 263 266 271 276 280 285 288 291 293 294 295 297 298 299 299 298 299 299 299 299 299 298 298 297 297 297 297 296 296 296 296 296 295 294 293 293 292 291 290
248 252 257 261 265 269 274 278 282 285 288 290 292 293 295 296 297 297 297 297 298 298 299 299 298 298 297 297 297 297 296 296 296 297 297 296 296 295 294 294 293 293 292
250 254 259 263 266 270 275 279 283 285 288 290 291 292 294 295 296 296 296 296 297 297 298 298 298 297 297 296 297 297 297 297 297 297 297 297 297 296 295 295 295 294 293
252 257 261 264 268 272 276 280 283 286 288 290 291 292 293 294 295 296 297 297 297 297 297 297 297 297 297 297 297 297 297 297 298 298 298 298 298 297 297 297 296 296 294
254 258 263 267 270 274 277 280 283 286 288 290 291 292 293 294 296 296 297 297 298 297 297 298 298 298 298 297 297 297 298 298 298 298 298 298 298 298 298 297 297 296 295
256 260 264 268 271 274 276 280 283 285 287 289 291 292 293 294 296 296 296 297 297 298 298 298 298 298 298 297 297 297 298 298 298 298 298 298 298 299 299 299 298 297 296
257 261 265 269 271 274 277 280 282 284 287 289 290 291 292 294 295 295 296 296 297 297 298 298 298 298 298 298 298 298 299 299 299 299 299 298 299 299 300 300 299 299 297
258 261 265 268 272 275 278 280 282 284 287 289 290 291 292 293 294 295 295 295 296 297 298 298 298 298 298 298 298 298 299 299 299 299 299 299 299 299 300 301 300 299 299
259 262 265 269 272 275 278 281 283 285 286 288 290 291 291 292 293 294 294 295 296 297 297 297 297 297 297 297 297 298 300 300 300 300 300 300 301 301 302 302 302 301 300
259 262 265 269 272 275 277 279 282 284 286 288 289 290 290 291 292 293 293 294 296 296 296 296 296 297 297 297 297 298 300 300 300 301 301 302 302 302 303 302 302 301 301
260 262 265 268 271 273 276 278 281 283 286 287 288 289 289 289 291 292 293 294 295 295 295 295 295 296 297 298 298 299 300 300 300 301 301 302 302 303 303 302 302 302 302
260 262 265 267 270 272 275 277 280 282 284 286 286 287 288 289 290 291 292 293 294 294 294 295 295 296 297 298 298 299 300 300 300 301 302 302 303 303 303 303 303 303 303
259 261 264 266 269 271 274 276 278 281 282 283 285 286 287 288 289 289 290 292 292 293 293 294 295 296 297 298 299 299 300 300 300 301 302 302 303 303 304 304 304 303 303
259 261 264 266 268 270 273 275 276 278 280 282 283 284 285 286 287 288 289 291 292 293 294 295 295 296 297 298 299 299 300 300 301 301 302 303 303 303 304 304 304 303 303
258 261 263 265 267 269 271 273 275 277 279 280 282 283 284 286 287 288 289 290 291 292 293 294 295 296 297 298 298 299 300 301 301 302 302 303 303 303 304 304 304 303 303
Height
5866 5867 5868 5869 5870 5871 5871 5872 5872 5872 5872 5872 5873 5873 5872 5872 5872 5872 5872 5872 5872 5872 5872 5872 5871 5871 5871 5870 5869 5869 5868 5867 5867 5866 5865 5865 5864 5863 5862 5862 5861 5860 5859
5865 5866 5867 5868 5868 5869 5870 5870 5870 5871 5871 5871 5871 5871 5871 5871 5871 5871 5871 5871 5871 5870 5870 5870 5869 5869 5868 5867 5867 5866 5865 5865 5864 5863 5862 5861 5860 5860 5859 5858 5857 5856 5855
5863 5864 5865 5866 5867 5868 5868 5869 5869 5869 5869 5870 5870 5870 5870 5869 5869 5869 5869 5869 5868 5868 5868 5867 5867 5866 5866 5865 5864 5863 5862 5861 5861 5860 5859 5858 5857 5856 5855 5854 5853 5852 5851
5862 5863 5864 5865 5866 5866 5867 5867 5868 5868 5868 5868 5868 5868 5868 5868 5868 5867 5867 5867 5867 5866 5865 5865 5864 5863 5863 5862 5861 5860 5859 5858 5857 5856 5855 5854 5853 5852 5850 5849 5848 5847 5846
5861 5862 5863 5863 5864 5865 5865 5866 5866 5866 5867 5867 5866 5866 5866 5866 5866 5865 5865 5865 5864 5864 5863 5862 5861 5860 5860 5859 5857 5856 5855 5854 5853 5852 5851 5850 5848 5847 5846 5845 5843 5842 5841
5859 5860 5861 5862 5863 5863 5864 5864 5865 5865 5865 5865 5865 5864 5864 5864 5864 5863 5863 5862 5862 5861 5860 5859 5858 5857 5856 5855 5854 5853 5851 5850 5849 5848 5846 5845 5844 5842 5841 5840 5838 5837 5836
5858 5859 5860 5860 5861 5862 5862 5863 5863 5863 5863 5863 5863 5862 5862 5862 5861 5861 5860 5860 5859 5858 5857 5856 5855 5854 5853 5852 5850 5849 5847 5846 5845 5843 5842 5840 5839 5837 5836 5834 5833 5831 5830
5856 5857 5858 5859 5859 5860 5860 5861 5861 5861 5861 5861 5861 5860 5860 5859 5859 5858 5857 5857 5856 5855 5854 5853 5852 5850 5849 5848 5846 5845 5843 5842 5840 5838 5837 5835 5833 5832 5830 5828 5827 5825 5824
5854 5855 5856 5857 5858 5858 5858 5859 5859 5859 5858 5858 5858 5858 5857 5857 5856 5855 5854 5854 5853 5852 5850 5849 5848 5846 5845 5843 5842 5840 5838 5837 5835 5833 5832 5830 5828 5826 5824 5822 5821 5819 5817
5852 5853 5854 5855 5855 5856 5856 5856 5856 5856 5856 5856 5855 5855 5854 5854 5853 5852 5851 5850 5849 5848 5846 5845 5844 5842 5840 5839 5837 5835 5833 5831 5830 5828 5826 5824 5822 5820 5818 5816 5814 5813 5811
5850 5851 5852 5852 5853 5853 5854 5854 5853 5853 5853 5853 5852 5852 5851 5851 5850 5849 5848 5846 5845 5844 5842 5841 5839 5837 5836 5834 5832 5830 5828 5826 5824 5822 5820 5818 5816 5814 5812 5810 5808 5806 5804
5848 5848 5849 5850 5850 5850 5851 5851 5851 5850 5850 5850 5849 5849 5848 5847 5846 5845 5843 5842 5841 5839 5838 5836 5834 5832 5830 5828 5826 5824 5822 5821 5818 5816 5814 5812 5810 5807 5805 5803 5801 5799 5797
5845 5845 5846 5847 5847 5847 5847 5847 5847 5847 5847 5846 5846 5845 5844 5843 5842 5840 5839 5837 5836 5834 5833 5831 5829 5827 5825 5823 5821 5819 5817 5815 5812 5810 5808 5806 5803 5801 5799 5796 5794 5792 5790
5841 5842 5843 5843 5844 5844 5844 5844 5844 5843 5843 5842 5842 5841 5840 5838 5837 5836 5834 5833 5831 5829 5827 5825 5824 5822 5819 5817 5815 5813 5810 5808 5806 5804 5801 5799 5796 5794 5791 5789 5787 5784 5782
5837 5838 5839 5839 5840 5840 5840 5840 5839 5839 5839 5838 5837 5836 5835 5834 5832 5831 5829 5827 5826 5824 5822 5820 5818 5815 5813 5811 5809 5807 5804 5802 5800 5797 5795 5792 5789 5787 5784 5782 5779 5777 5774
5833 5834 5835 5835 5835 5836 5836 5835 5835 5835 5834 5833 5832 5831 5830 5828 5827 5826 5824 5822 5820 5818 5816 5814 5812 5809 5807 5805 5803 5800 5798 5795 5793 5790 5788 5785 5782 5780 5777 5775 5772 5769 5767
5828 5829 5830 5830 5831 5831 5831 5831 5830 5830 5829 5828 5827 5826 5824 5823 5821 5820 5818 5816 5814 5812 5810 5807 5805 5803 5801 5798 5796 5793 5791 5788 5786 5783 5781 5778 5775 5773 5770 5767 5764 5762 5759
5823 5824 5825 5825 5826 5826 5826 5825 5825 5824 5823 5822 5821 5820 5818 5817 5815 5814 5812 5810 5808 5806 5803 5801 5799 5796 5794 5792 5789 5787 5784 5781 5779 5776 5774 5771 5768 5765 5763 5760 5757 5754 5751
5818 5819 5820 5820 5820 5820 5820 5820 5819 5819 5818 5816 5815 5814 5812 5811 5809 5807 5806 5804 5802 5799 5797 5795 5792 5790 5787 5785 5783 5780 5777 5775 5772 5769 5767 5764 5761 5758 5755 5752 5749 5746 5744
5812 5813 5814 5814 5814 5814 5814 5814 5813 5812 5811 5810 5809 5807 5806 5804 5803 5801 5799 5797 5795 5793 5791 5788 5786 5783 5781 5778 5776 5773 5771 5768 5765 5762 5759 5757 5754 5751 5748 5745 5742 5739 5736
5806 5807 5808 5808 5808 5808 5808 5807 5807 5806 5805 5804 5802 5801 5799 5798 5796 5794 5792 5791 5789 5786 5784 5782 5779 5776 5774 5772 5769 5767 5764 5761 5758 5755 5752 5749 5746 5744 5741 5738 5734 5731 5728
5799 5800 5801 5801 5801 5801 5801 5801 5800 5800 5799 5797 5796 5794 5793 5791 5790 5788 5786 5784 5782 5780 5777 5775 5772 5770 5767 5765 5762 5760 5757 5755 5751 5748 5745 5742 5739 5736 5733 5730 5727 5724 5720
5792 5793 5794 5794 5794 5794 5794 5794 5793 5793 5792 5790 5789 5787 5786 5785 5783 5781 5779 5777 5775 5773 5770 5768 5765 5763 5760 5758 5755 5753 5750 5747 5744 5741 5738 5735 5731 5728 5725 5722 5718 5715 5712
5784 5785 5786 5787 5787 5787 5787 5786 5786 5786 5785 5783 5782 5781 5779 5778 5776 5774 5772 5770 5768 5766 5763 5761 5758 5756 5753 5751 5748 5745 5742 5740 5737 5734 5731 5727 5724 5721 5717 5714 5710 5707 5703
5776 5777 5778 5779 5779 5779 5779 5779 5779 5778 5778 5776 5775 5773 5772 5771 5769 5767 5765 5763 5761 5759 5756 5754 5751 5749 5746 5744 5741 5738 5735 5732 5729 5726 5724 5720 5716 5712 5709 5705 5701 5698 5694
5767 5769 5770 5771 5771 5771 5772 5771 5771 5771 5770 5768 5767 5766 5765 5763 5761 5759 5757 5756 5754 5751 5749 5747 5744 5742 5739 5736 5733 5730 5727 5724 5721 5718 5715 5712 5708 5704 5700 5696 5692 5688 5684